,,,PA_Meas_PMT16A,,PR_Meas_QMR101_102,,RH_Meas_QMH101,,SR_Meas_QMS101,,TA_Meas_QMH101,,GenWind,,GenWind,
date,time,status,PA,status,PR,status,RH,status,SR,status,TA,status,DirAvg,status,SpdAvg,
2008-09-17, 00:00:05,VALID,1011.26,VALID,0,VALID,93.8273,VALID,0,VALID,23.5948,VALID,217,VALID,0,
2008-09-17, 00:01:05,VALID,1011.25,VALID,0,VALID,93.873,VALID,0,VALID,23.5558,VALID,217,VALID,0,
2008-09-17, 00:02:05,VALID,1011.27,VALID,0,VALID,93.934,VALID,0.105969,VALID,23.5558,VALID,217,VALID,0,
2008-09-17, 00:03:05,VALID,1011.27,VALID,0,VALID,93.9493,VALID,0,VALID,23.5363,VALID,313,VALID,0,
2008-09-17, 00:04:05,VALID,1011.28,VALID,0,VALID,93.9645,VALID,0.105969,VALID,23.5558,VALID,314,VALID,0,
2008-09-17, 00:05:05,VALID,1011.28,VALID,0,VALID,93.9722,VALID,0,VALID,23.5169,VALID,314,VALID,0,
2008-09-17, 00:06:05,VALID,1011.28,VALID,0,VALID,93.995,VALID,0,VALID,23.5169,VALID,314,VALID,0,
2008-09-17, 00:07:05,VALID,1011.28,VALID,0,VALID,94.0332,VALID,0,VALID,23.4779,VALID,314,VALID,0,
2008-09-17, 00:08:05,VALID,1011.29,VALID,0,VALID,94.0637,VALID,0.105969,VALID,23.4779,VALID,314,VALID,0,
2008-09-17, 00:09:05,VALID,1011.26,VALID,0,VALID,94.0713,VALID,0,VALID,23.4584,VALID,314,VALID,0,
2008-09-17, 00:10:05,VALID,1011.26,VALID,0,VALID,94.1094,VALID,0,VALID,23.4584,VALID,314,VALID,0,
2008-09-17, 00:11:05,VALID,1011.26,VALID,0,VALID,94.1628,VALID,0.105969,VALID,23.4584,VALID,314,VALID,0,
2008-09-17, 00:12:05,VALID,1011.24,VALID,0,VALID,94.2009,VALID,0,VALID,23.4194,VALID,314,VALID,0,
2008-09-17, 00:13:05,VALID,1011.2,VALID,0,VALID,94.2009,VALID,0.105969,VALID,23.4194,VALID,314,VALID,0,
2008-09-17, 00:14:05,VALID,1011.19,VALID,0,VALID,94.2314,VALID,0.105969,VALID,23.4584,VALID,314,VALID,0,
2008-09-17, 00:15:05,VALID,1011.17,VALID,0,VALID,94.2467,VALID,0,VALID,23.4,VALID,314,VALID,0,
2008-09-17, 00:16:05,VALID,1011.17,VALID,0,VALID,94.2619,VALID,0,VALID,23.4,VALID,314,VALID,0,
2008-09-17, 00:17:05,VALID,1011.18,VALID,0,VALID,94.2848,VALID,0,VALID,23.3805,VALID,314,VALID,0,
2008-09-17, 00:18:05,VALID,1011.16,VALID,0,VALID,94.3306,VALID,0.105969,VALID,23.3805,VALID,314,VALID,0,
2008-09-17, 00:19:05,VALID,1011.15,VALID,0,VALID,94.3687,VALID,0,VALID,23.3805,VALID,314,VALID,0,
2008-09-17, 00:20:05,VALID,1011.17,VALID,0,VALID,94.3763,VALID,0.105969,VALID,23.3805,VALID,314,VALID,0,
2008-09-17, 00:21:05,VALID,1011.18,VALID,0,VALID,94.3992,VALID,0,VALID,23.361,VALID,314,VALID,0,
2008-09-17, 00:22:05,VALID,1011.14,VALID,0,VALID,94.4526,VALID,0,VALID,23.3805,VALID,314,VALID,0,
2008-09-17, 00:23:05,VALID,1011.09,VALID,0,VALID,94.445,VALID,0,VALID,23.361,VALID,314,VALID,0,
2008-09-17, 00:24:05,VALID,1011.11,VALID,0,VALID,94.4907,VALID,0.105969,VALID,23.361,VALID,314,VALID,0,
2008-09-17, 00:25:05,VALID,1011.06,VALID,0,VALID,94.4983,VALID,0.105969,VALID,23.361,VALID,314,VALID,0,
2008-09-17, 00:26:05,VALID,1011.04,VALID,0,VALID,94.5822,VALID,0,VALID,23.3398,VALID,314,VALID,0,
2008-09-17, 00:27:05,VALID,1011.01,VALID,0,VALID,94.6203,VALID,0,VALID,23.3805,VALID,314,VALID,0,
2008-09-17, 00:28:05,VALID,1010.99,VALID,0,VALID,94.6356,VALID,0.105969,VALID,23.3805,VALID,314,VALID,0,
2008-09-17, 00:29:05,VALID,1010.95,VALID,0,VALID,94.628,VALID,0.105969,VALID,23.3805,VALID,314,VALID,0,
2008-09-17, 00:30:05,VALID,1010.95,VALID,0,VALID,94.6127,VALID,0.105969,VALID,23.3805,VALID,314,VALID,0,
2008-09-17, 00:31:05,VALID,1010.95,VALID,0,VALID,94.5975,VALID,0.105969,VALID,23.3805,VALID,314,VALID,0,
2008-09-17, 00:32:05,VALID,1010.92,VALID,0,VALID,94.5898,VALID,0,VALID,23.3805,VALID,314,VALID,0,
2008-09-17, 00:33:05,VALID,1010.95,VALID,0,VALID,94.5746,VALID,0,VALID,23.3805,VALID,314,VALID,0,
2008-09-17, 00:34:05,VALID,1010.9,VALID,0,VALID,94.5517,VALID,0,VALID,23.3805,VALID,314,VALID,0,
2008-09-17, 00:35:05,VALID,1010.94,VALID,0,VALID,94.5365,VALID,0,VALID,23.3805,VALID,314,VALID,0,
2008-09-17, 00:36:05,VALID,1010.89,VALID,0,VALID,94.567,VALID,0.105969,VALID,23.3805,VALID,314,VALID,0,
2008-09-17, 00:37:05,VALID,1010.89,VALID,0,VALID,94.5441,VALID,0,VALID,23.3805,VALID,314,VALID,0,
2008-09-17, 00:38:05,VALID,1010.88,VALID,0,VALID,94.5746,VALID,0.105969,VALID,23.4,VALID,314,VALID,0,
2008-09-17, 00:39:05,VALID,1010.88,VALID,0,VALID,94.567,VALID,0.105969,VALID,23.3805,VALID,314,VALID,0,
2008-09-17, 00:40:05,VALID,1010.85,VALID,0,VALID,94.5288,VALID,0.105969,VALID,23.3805,VALID,314,VALID,0,
2008-09-17, 00:41:05,VALID,1010.82,VALID,0,VALID,94.4602,VALID,0.105969,VALID,23.3415,VALID,314,VALID,0,
2008-09-17, 00:42:05,VALID,1010.83,VALID,0,VALID,94.4678,VALID,0.105969,VALID,23.3415,VALID,314,VALID,0,
2008-09-17, 00:43:05,VALID,1010.82,VALID,0,VALID,94.4526,VALID,0.105969,VALID,23.361,VALID,314,VALID,0,
2008-09-17, 00:44:05,VALID,1010.79,VALID,0,VALID,94.4831,VALID,0.105969,VALID,23.3415,VALID,314,VALID,0,
2008-09-17, 00:45:05,VALID,1010.78,VALID,0,VALID,94.4755,VALID,0.211938,VALID,23.322,VALID,314,VALID,0,
2008-09-17, 00:46:05,VALID,1010.78,VALID,0,VALID,94.4755,VALID,0.105969,VALID,23.361,VALID,314,VALID,0,
2008-09-17, 00:47:05,VALID,1010.8,VALID,0,VALID,94.4983,VALID,0.105969,VALID,23.322,VALID,314,VALID,0,
2008-09-17, 00:48:05,VALID,1010.76,VALID,0,VALID,94.506,VALID,0.105969,VALID,23.322,VALID,314,VALID,0,
2008-09-17, 00:49:05,VALID,1010.78,VALID,0,VALID,94.5136,VALID,0.105969,VALID,23.3026,VALID,314,VALID,0,
2008-09-17, 00:50:04,VALID,1010.76,VALID,0,VALID,94.5288,VALID,0,VALID,23.2831,VALID,314,VALID,0,
2008-09-17, 00:51:04,VALID,1010.75,VALID,0,VALID,94.5441,VALID,0.105969,VALID,23.2831,VALID,314,VALID,0,
2008-09-17, 00:52:04,VALID,1010.74,VALID,0,VALID,94.5517,VALID,0.105969,VALID,23.2636,VALID,314,VALID,0,
2008-09-17, 00:53:04,VALID,1010.73,VALID,0,VALID,94.5746,VALID,0.105969,VALID,23.2654,VALID,314,VALID,0,
2008-09-17, 00:54:04,VALID,1010.73,VALID,0,VALID,94.6051,VALID,0.105969,VALID,23.2246,VALID,314,VALID,0,
2008-09-17, 00:55:04,VALID,1010.74,VALID,0,VALID,94.6051,VALID,0.105969,VALID,23.2246,VALID,314,VALID,0,
2008-09-17, 00:56:04,VALID,1010.74,VALID,0,VALID,94.6127,VALID,0.105969,VALID,23.2246,VALID,314,VALID,0,
2008-09-17, 00:57:04,VALID,1010.75,VALID,0,VALID,94.5898,VALID,0.105969,VALID,23.1662,VALID,314,VALID,0,
2008-09-17, 00:58:04,VALID,1010.72,VALID,0,VALID,94.628,VALID,0.105969,VALID,23.1857,VALID,314,VALID,0,
2008-09-17, 00:59:04,VALID,1010.72,VALID,0,VALID,94.6661,VALID,0.105969,VALID,23.1857,VALID,314,VALID,0,
2008-09-17, 01:00:04,VALID,1010.74,VALID,0,VALID,94.689,VALID,0.105969,VALID,23.1644,VALID,314,VALID,0,
2008-09-17, 01:01:04,VALID,1010.74,VALID,0,VALID,94.75,VALID,0.105969,VALID,23.2051,VALID,14,VALID,0,
2008-09-17, 01:02:04,VALID,1010.73,VALID,0,VALID,94.7576,VALID,0.105969,VALID,23.1857,VALID,14,VALID,0,
2008-09-17, 01:03:04,VALID,1010.74,VALID,0,VALID,94.7652,VALID,0.105969,VALID,23.1662,VALID,14,VALID,0,
2008-09-17, 01:04:04,VALID,1010.73,VALID,0,VALID,94.75,VALID,0.105969,VALID,23.1467,VALID,14,VALID,0,
2008-09-17, 01:05:04,VALID,1010.72,VALID,0,VALID,94.75,VALID,0.105969,VALID,23.1467,VALID,14,VALID,0,
2008-09-17, 01:06:04,VALID,1010.74,VALID,0,VALID,94.75,VALID,0,VALID,23.1272,VALID,14,VALID,0,
2008-09-17, 01:07:04,VALID,1010.72,VALID,0,VALID,94.7576,VALID,0,VALID,23.1077,VALID,14,VALID,0,
2008-09-17, 01:08:04,VALID,1010.7,VALID,0,VALID,94.7652,VALID,0,VALID,23.1077,VALID,14,VALID,0,
2008-09-17, 01:09:04,VALID,1010.72,VALID,0,VALID,94.7729,VALID,0,VALID,23.1095,VALID,14,VALID,0,
2008-09-17, 01:10:04,VALID,1010.72,VALID,0,VALID,94.7576,VALID,0,VALID,23.1095,VALID,14,VALID,0,
2008-09-17, 01:11:04,VALID,1010.7,VALID,0,VALID,94.7957,VALID,0,VALID,23.1095,VALID,14,VALID,0,
2008-09-17, 01:12:04,VALID,1010.7,VALID,0,VALID,94.7881,VALID,0,VALID,23.09,VALID,14,VALID,0,
2008-09-17, 01:13:04,VALID,1010.68,VALID,0,VALID,94.7729,VALID,0,VALID,23.0705,VALID,14,VALID,0,
2008-09-17, 01:14:04,VALID,1010.68,VALID,0,VALID,94.7729,VALID,0,VALID,23.0705,VALID,14,VALID,0,
2008-09-17, 01:15:04,VALID,1010.63,VALID,0,VALID,94.7957,VALID,0,VALID,23.0511,VALID,14,VALID,0,
2008-09-17, 01:16:04,VALID,1010.64,VALID,0,VALID,94.811,VALID,0,VALID,23.1112,VALID,14,VALID,0,
2008-09-17, 01:17:04,VALID,1010.6,VALID,0,VALID,94.8262,VALID,0,VALID,23.0511,VALID,14,VALID,0,
2008-09-17, 01:18:04,VALID,1010.58,VALID,0,VALID,94.8262,VALID,0,VALID,23.0511,VALID,14,VALID,0,
2008-09-17, 01:19:04,VALID,1010.57,VALID,0,VALID,94.8262,VALID,0,VALID,23.0316,VALID,14,VALID,0,
2008-09-17, 01:20:04,VALID,1010.55,VALID,0,VALID,94.8644,VALID,0,VALID,23.0316,VALID,14,VALID,0,
2008-09-17, 01:21:04,VALID,1010.53,VALID,0,VALID,94.8568,VALID,0,VALID,23.0316,VALID,14,VALID,0,
2008-09-17, 01:22:04,VALID,1010.5,VALID,0,VALID,94.8873,VALID,0,VALID,23.0103,VALID,14,VALID,0,
2008-09-17, 01:23:04,VALID,1010.51,VALID,0,VALID,94.9178,VALID,0,VALID,23.0316,VALID,14,VALID,0,
2008-09-17, 01:24:04,VALID,1010.5,VALID,0,VALID,94.933,VALID,0,VALID,23.0316,VALID,14,VALID,0,
2008-09-17, 01:25:04,VALID,1010.51,VALID,0,VALID,94.9406,VALID,0,VALID,23.0511,VALID,14,VALID,0,
2008-09-17, 01:26:04,VALID,1010.49,VALID,0,VALID,94.933,VALID,0,VALID,23.0121,VALID,14,VALID,0,
2008-09-17, 01:27:04,VALID,1010.53,VALID,0,VALID,94.9101,VALID,0,VALID,23.0121,VALID,14,VALID,0,
2008-09-17, 01:28:04,VALID,1010.52,VALID,0,VALID,94.9178,VALID,0,VALID,23.0121,VALID,14,VALID,0,
2008-09-17, 01:29:04,VALID,1010.52,VALID,0,VALID,94.9101,VALID,0,VALID,22.9926,VALID,14,VALID,0,
2008-09-17, 01:30:04,VALID,1010.51,VALID,0,VALID,94.9178,VALID,0,VALID,22.9926,VALID,14,VALID,0,
2008-09-17, 01:31:04,VALID,1010.49,VALID,0,VALID,94.8873,VALID,0,VALID,22.9731,VALID,14,VALID,0,
2008-09-17, 01:32:04,VALID,1010.49,VALID,0,VALID,94.8796,VALID,0,VALID,22.9536,VALID,14,VALID,0,
2008-09-17, 01:33:04,VALID,1010.48,VALID,0,VALID,94.8949,VALID,0,VALID,22.9536,VALID,14,VALID,0,
2008-09-17, 01:34:04,VALID,1010.46,VALID,0,VALID,94.9025,VALID,0,VALID,22.9536,VALID,14,VALID,0,
2008-09-17, 01:35:04,VALID,1010.45,VALID,0,VALID,94.8873,VALID,0,VALID,22.9536,VALID,14,VALID,0,
2008-09-17, 01:36:04,VALID,1010.49,VALID,0,VALID,94.9101,VALID,0,VALID,22.9536,VALID,14,VALID,0,
2008-09-17, 01:37:04,VALID,1010.48,VALID,0,VALID,94.9178,VALID,0,VALID,22.9536,VALID,14,VALID,0,
2008-09-17, 01:38:04,VALID,1010.51,VALID,0,VALID,94.9254,VALID,0,VALID,22.9342,VALID,14,VALID,0,
2008-09-17, 01:39:04,VALID,1010.5,VALID,0,VALID,94.9483,VALID,0,VALID,22.9324,VALID,14,VALID,0,
2008-09-17, 01:40:04,VALID,1010.52,VALID,0,VALID,94.9635,VALID,0,VALID,22.9536,VALID,14,VALID,0,
2008-09-17, 01:41:04,VALID,1010.54,VALID,0,VALID,94.9864,VALID,0,VALID,22.9342,VALID,14,VALID,0,
2008-09-17, 01:42:04,VALID,1010.54,VALID,0,VALID,94.9635,VALID,0,VALID,22.9342,VALID,14,VALID,0,
2008-09-17, 01:43:04,VALID,1010.55,VALID,0,VALID,94.9635,VALID,0,VALID,22.9342,VALID,14,VALID,0,
2008-09-17, 01:44:04,VALID,1010.59,VALID,0,VALID,94.9711,VALID,0,VALID,22.9147,VALID,14,VALID,0,
2008-09-17, 01:45:04,VALID,1010.63,VALID,0,VALID,94.9711,VALID,0,VALID,22.8952,VALID,20,VALID,0,
2008-09-17, 01:46:04,VALID,1010.61,VALID,0,VALID,94.9406,VALID,0,VALID,22.8757,VALID,20,VALID,0,
2008-09-17, 01:47:04,VALID,1010.63,VALID,0,VALID,94.933,VALID,0,VALID,22.8757,VALID,20,VALID,0,
2008-09-17, 01:48:04,VALID,1010.62,VALID,0,VALID,94.9025,VALID,0,VALID,22.8562,VALID,20,VALID,0,
2008-09-17, 01:49:04,VALID,1010.64,VALID,0,VALID,94.9025,VALID,0,VALID,22.8368,VALID,20,VALID,0,
2008-09-17, 01:50:04,VALID,1010.61,VALID,0,VALID,94.9101,VALID,0,VALID,22.8368,VALID,20,VALID,0,
2008-09-17, 01:51:04,VALID,1010.61,VALID,0,VALID,94.9025,VALID,0,VALID,22.8155,VALID,20,VALID,0,
2008-09-17, 01:52:04,VALID,1010.6,VALID,0,VALID,94.9178,VALID,0,VALID,22.8368,VALID,20,VALID,0,
2008-09-17, 01:53:04,VALID,1010.6,VALID,0,VALID,94.933,VALID,0,VALID,22.858,VALID,20,VALID,0,
2008-09-17, 01:54:04,VALID,1010.59,VALID,0,VALID,94.9559,VALID,0,VALID,22.8562,VALID,20,VALID,0,
2008-09-17, 01:55:04,VALID,1010.61,VALID,0,VALID,94.9711,VALID,0,VALID,22.835,VALID,20,VALID,0,
2008-09-17, 01:56:04,VALID,1010.6,VALID,0,VALID,94.994,VALID,0,VALID,22.8562,VALID,20,VALID,0,
2008-09-17, 01:57:04,VALID,1010.6,VALID,0,VALID,95.0321,VALID,0,VALID,22.8757,VALID,20,VALID,0,
2008-09-17, 01:58:04,VALID,1010.59,VALID,0,VALID,95.0474,VALID,0,VALID,22.8952,VALID,20,VALID,0,
2008-09-17, 01:59:04,VALID,1010.59,VALID,0,VALID,95.0398,VALID,0,VALID,22.8952,VALID,20,VALID,0,
2008-09-17, 02:00:04,VALID,1010.59,VALID,0,VALID,95.0626,VALID,0,VALID,22.9147,VALID,20,VALID,0,
2008-09-17, 02:01:04,VALID,1010.58,VALID,0,VALID,95.0626,VALID,0,VALID,22.9147,VALID,20,VALID,0,
2008-09-17, 02:02:04,VALID,1010.58,VALID,0,VALID,95.0779,VALID,0,VALID,22.9342,VALID,20,VALID,0,
2008-09-17, 02:03:04,VALID,1010.55,VALID,0,VALID,95.0626,VALID,0,VALID,22.9536,VALID,20,VALID,0,
2008-09-17, 02:04:04,VALID,1010.53,VALID,0,VALID,95.0474,VALID,0,VALID,22.9519,VALID,20,VALID,0.323828,
2008-09-17, 02:05:04,VALID,1010.53,VALID,0,VALID,95.0016,VALID,0,VALID,22.9536,VALID,13,VALID,0.449219,
2008-09-17, 02:06:04,VALID,1010.5,VALID,0,VALID,94.9788,VALID,0.105969,VALID,22.9324,VALID,360,VALID,0.319531,
2008-09-17, 02:07:04,VALID,1010.51,VALID,0,VALID,94.9483,VALID,0.105969,VALID,22.9324,VALID,348,VALID,0.380078,
2008-09-17, 02:08:04,VALID,1010.52,VALID,0,VALID,94.933,VALID,0,VALID,22.9324,VALID,328,VALID,0.158984,
2008-09-17, 02:09:04,VALID,1010.5,VALID,0,VALID,94.9406,VALID,0,VALID,22.9519,VALID,328,VALID,0,
2008-09-17, 02:10:04,VALID,1010.53,VALID,0,VALID,94.9178,VALID,0,VALID,22.9324,VALID,328,VALID,0.105469,
2008-09-17, 02:11:04,VALID,1010.53,VALID,0,VALID,94.9101,VALID,0.105969,VALID,22.9324,VALID,328,VALID,0,
2008-09-17, 02:12:04,VALID,1010.47,VALID,0,VALID,94.9025,VALID,0,VALID,22.9129,VALID,328,VALID,0.232812,
2008-09-17, 02:13:04,VALID,1010.5,VALID,0,VALID,94.8796,VALID,0.105969,VALID,22.8917,VALID,328,VALID,0.244922,
2008-09-17, 02:14:04,VALID,1010.48,VALID,0,VALID,94.872,VALID,0,VALID,22.9129,VALID,328,VALID,0.264844,
2008-09-17, 02:15:04,VALID,1010.45,VALID,0,VALID,94.8796,VALID,0.105969,VALID,22.8935,VALID,328,VALID,0.0695312,
2008-09-17, 02:16:04,VALID,1010.43,VALID,0,VALID,94.872,VALID,0.105969,VALID,22.9129,VALID,328,VALID,0.0957031,
2008-09-17, 02:17:04,VALID,1010.45,VALID,0,VALID,94.8949,VALID,0.105969,VALID,22.9129,VALID,328,VALID,0,
2008-09-17, 02:18:04,VALID,1010.44,VALID,0,VALID,94.9025,VALID,0.105969,VALID,22.9129,VALID,328,VALID,0,
2008-09-17, 02:19:04,VALID,1010.43,VALID,0,VALID,94.9178,VALID,0,VALID,22.9129,VALID,328,VALID,0,
2008-09-17, 02:20:04,VALID,1010.39,VALID,0,VALID,94.9254,VALID,0,VALID,22.8935,VALID,328,VALID,0,
2008-09-17, 02:21:04,VALID,1010.39,VALID,0,VALID,94.9254,VALID,0.105969,VALID,22.8917,VALID,328,VALID,0.0773437,
2008-09-17, 02:22:04,VALID,1010.38,VALID,0,VALID,94.9406,VALID,0.105969,VALID,22.9129,VALID,328,VALID,0,
2008-09-17, 02:23:04,VALID,1010.37,VALID,0,VALID,94.9406,VALID,0.105969,VALID,22.9324,VALID,328,VALID,0,
2008-09-17, 02:24:04,VALID,1010.36,VALID,0,VALID,94.9635,VALID,0.105969,VALID,22.8917,VALID,328,VALID,0,
2008-09-17, 02:25:04,VALID,1010.36,VALID,0,VALID,94.9788,VALID,0.105969,VALID,22.9519,VALID,328,VALID,0,
2008-09-17, 02:26:04,VALID,1010.32,VALID,0,VALID,94.994,VALID,0.105969,VALID,22.9519,VALID,328,VALID,0,
2008-09-17, 02:27:04,VALID,1010.32,VALID,0,VALID,94.9711,VALID,0.105969,VALID,22.9519,VALID,328,VALID,0,
2008-09-17, 02:28:04,VALID,1010.33,VALID,0,VALID,94.994,VALID,0.105969,VALID,22.9519,VALID,328,VALID,0,
2008-09-17, 02:29:04,VALID,1010.33,VALID,0,VALID,95.0093,VALID,0.105969,VALID,22.9714,VALID,328,VALID,0,
2008-09-17, 02:30:04,VALID,1010.32,VALID,0,VALID,94.9864,VALID,0.105969,VALID,22.9714,VALID,328,VALID,0,
2008-09-17, 02:31:04,VALID,1010.31,VALID,0,VALID,95.0016,VALID,0.105969,VALID,22.9519,VALID,328,VALID,0,
2008-09-17, 02:32:04,VALID,1010.3,VALID,0,VALID,94.994,VALID,0,VALID,22.9714,VALID,328,VALID,0,
2008-09-17, 02:33:04,VALID,1010.33,VALID,0,VALID,94.9635,VALID,0.105969,VALID,22.9909,VALID,328,VALID,0,
2008-09-17, 02:34:04,VALID,1010.32,VALID,0,VALID,94.9635,VALID,0.105969,VALID,22.9714,VALID,328,VALID,0,
2008-09-17, 02:35:04,VALID,1010.32,VALID,0,VALID,94.9406,VALID,0.105969,VALID,22.9714,VALID,328,VALID,0,
2008-09-17, 02:36:04,VALID,1010.28,VALID,0,VALID,94.9178,VALID,0,VALID,22.9909,VALID,328,VALID,0,
2008-09-17, 02:37:04,VALID,1010.24,VALID,0,VALID,94.9406,VALID,0.105969,VALID,22.9909,VALID,328,VALID,0,
2008-09-17, 02:38:04,VALID,1010.27,VALID,0,VALID,94.933,VALID,0.105969,VALID,22.9891,VALID,328,VALID,0,
2008-09-17, 02:39:04,VALID,1010.28,VALID,0,VALID,94.9178,VALID,0.211938,VALID,22.9891,VALID,328,VALID,0,
2008-09-17, 02:40:04,VALID,1010.25,VALID,0,VALID,94.9406,VALID,0.105969,VALID,23.0103,VALID,328,VALID,0,
2008-09-17, 02:41:04,VALID,1010.26,VALID,0,VALID,94.9254,VALID,0.105969,VALID,23.0298,VALID,328,VALID,0,
2008-09-17, 02:42:04,VALID,1010.25,VALID,0,VALID,94.9025,VALID,0.105969,VALID,23.0298,VALID,328,VALID,0,
2008-09-17, 02:43:04,VALID,1010.27,VALID,0,VALID,94.8796,VALID,0.105969,VALID,23.0298,VALID,328,VALID,0,
2008-09-17, 02:44:04,VALID,1010.28,VALID,0,VALID,94.8949,VALID,0.105969,VALID,23.0281,VALID,328,VALID,0,
2008-09-17, 02:45:04,VALID,1010.31,VALID,0,VALID,94.8873,VALID,0.105969,VALID,23.0883,VALID,328,VALID,0,
2008-09-17, 02:46:04,VALID,1010.29,VALID,0,VALID,94.8644,VALID,0.105969,VALID,23.0883,VALID,328,VALID,0.36875,
2008-09-17, 02:47:04,VALID,1010.32,VALID,0,VALID,94.8415,VALID,0.105969,VALID,23.0476,VALID,328,VALID,0.353516,
2008-09-17, 02:48:04,VALID,1010.3,VALID,0,VALID,94.8034,VALID,0.105969,VALID,23.0688,VALID,328,VALID,0.394922,
2008-09-17, 02:49:04,VALID,1010.32,VALID,0,VALID,94.7957,VALID,0.105969,VALID,23.0493,VALID,328,VALID,0.387891,
2008-09-17, 02:50:04,VALID,1010.33,VALID,0,VALID,94.7729,VALID,0.105969,VALID,23.0493,VALID,328,VALID,0.304297,
2008-09-17, 02:51:04,VALID,1010.34,VALID,0,VALID,94.7576,VALID,0,VALID,23.0511,VALID,328,VALID,0.251563,
2008-09-17, 02:52:04,VALID,1010.35,VALID,0,VALID,94.7195,VALID,0,VALID,23.0298,VALID,328,VALID,0.297656,
2008-09-17, 02:53:04,VALID,1010.34,VALID,0,VALID,94.7195,VALID,0,VALID,23.0103,VALID,328,VALID,0.362891,
2008-09-17, 02:54:04,VALID,1010.37,VALID,0,VALID,94.6966,VALID,0,VALID,23.0103,VALID,328,VALID,0.244531,
2008-09-17, 02:55:04,VALID,1010.33,VALID,0,VALID,94.689,VALID,0.105969,VALID,23.0103,VALID,328,VALID,0.149219,
2008-09-17, 02:56:04,VALID,1010.34,VALID,0,VALID,94.7195,VALID,0,VALID,23.0316,VALID,328,VALID,0,
2008-09-17, 02:57:04,VALID,1010.38,VALID,0,VALID,94.7119,VALID,0,VALID,23.0103,VALID,328,VALID,0,
2008-09-17, 02:58:04,VALID,1010.37,VALID,0,VALID,94.7271,VALID,0,VALID,23.0121,VALID,328,VALID,0,
2008-09-17, 02:59:04,VALID,1010.39,VALID,0,VALID,94.7347,VALID,0,VALID,22.9909,VALID,328,VALID,0,
2008-09-17, 03:00:04,VALID,1010.43,VALID,0,VALID,94.7347,VALID,0,VALID,22.9926,VALID,328,VALID,0.267188,
2008-09-17, 03:01:04,VALID,1010.46,VALID,0,VALID,94.7576,VALID,0,VALID,22.9926,VALID,328,VALID,0.192969,
2008-09-17, 03:02:04,VALID,1010.45,VALID,0,VALID,94.75,VALID,0,VALID,22.9926,VALID,328,VALID,0,
2008-09-17, 03:03:04,VALID,1010.48,VALID,0,VALID,94.7576,VALID,0,VALID,22.9926,VALID,328,VALID,0.145313,
2008-09-17, 03:04:04,VALID,1010.49,VALID,0,VALID,94.7729,VALID,0,VALID,22.9714,VALID,329,VALID,0.445703,
2008-09-17, 03:05:04,VALID,1010.5,VALID,0,VALID,94.7576,VALID,0,VALID,22.9519,VALID,329,VALID,0.2625,
2008-09-17, 03:06:04,VALID,1010.52,VALID,0,VALID,94.7347,VALID,0,VALID,22.9519,VALID,329,VALID,0.0546875,
2008-09-17, 03:07:04,VALID,1010.51,VALID,0,VALID,94.7652,VALID,0,VALID,22.9926,VALID,329,VALID,0,
2008-09-17, 03:08:04,VALID,1010.51,VALID,0,VALID,94.7729,VALID,0.105969,VALID,22.9714,VALID,329,VALID,0,
2008-09-17, 03:09:04,VALID,1010.54,VALID,0,VALID,94.8034,VALID,0.105969,VALID,22.9519,VALID,329,VALID,0,
2008-09-17, 03:10:04,VALID,1010.54,VALID,0,VALID,94.7881,VALID,0,VALID,22.9926,VALID,329,VALID,0,
2008-09-17, 03:11:04,VALID,1010.55,VALID,0,VALID,94.8262,VALID,0,VALID,22.9714,VALID,329,VALID,0.0523437,
2008-09-17, 03:12:04,VALID,1010.59,VALID,0,VALID,94.8339,VALID,0,VALID,22.9714,VALID,329,VALID,0,
2008-09-17, 03:13:04,VALID,1010.6,VALID,0,VALID,94.8796,VALID,0,VALID,22.9714,VALID,329,VALID,0.00195313,
2008-09-17, 03:14:04,VALID,1010.6,VALID,0,VALID,94.8644,VALID,0,VALID,22.9714,VALID,329,VALID,0,
2008-09-17, 03:15:04,VALID,1010.59,VALID,0,VALID,94.8644,VALID,0,VALID,22.9926,VALID,329,VALID,0,
2008-09-17, 03:16:04,VALID,1010.64,VALID,0,VALID,94.8339,VALID,0,VALID,22.9926,VALID,329,VALID,0,
2008-09-17, 03:17:04,VALID,1010.62,VALID,0,VALID,94.8415,VALID,0,VALID,22.9926,VALID,329,VALID,0,
2008-09-17, 03:18:04,VALID,1010.61,VALID,0,VALID,94.8644,VALID,0,VALID,22.9926,VALID,329,VALID,0,
2008-09-17, 03:19:04,VALID,1010.59,VALID,0,VALID,94.8568,VALID,0,VALID,22.9926,VALID,329,VALID,0,
2008-09-17, 03:20:04,VALID,1010.6,VALID,0,VALID,94.872,VALID,0,VALID,23.0121,VALID,329,VALID,0,
2008-09-17, 03:21:04,VALID,1010.61,VALID,0,VALID,94.8796,VALID,0,VALID,23.0121,VALID,329,VALID,0,
2008-09-17, 03:22:04,VALID,1010.63,VALID,0,VALID,94.8873,VALID,0,VALID,22.9926,VALID,329,VALID,0,
2008-09-17, 03:23:04,VALID,1010.65,VALID,0,VALID,94.9101,VALID,0,VALID,23.0121,VALID,329,VALID,0,
2008-09-17, 03:24:04,VALID,1010.66,VALID,0,VALID,94.8796,VALID,0,VALID,23.0316,VALID,329,VALID,0,
2008-09-17, 03:25:04,VALID,1010.69,VALID,0,VALID,94.8949,VALID,0,VALID,23.0333,VALID,329,VALID,0,
2008-09-17, 03:26:04,VALID,1010.72,VALID,0,VALID,94.8873,VALID,0,VALID,23.0316,VALID,329,VALID,0,
2008-09-17, 03:27:04,VALID,1010.75,VALID,0,VALID,94.8644,VALID,0,VALID,23.0333,VALID,329,VALID,0.322656,
2008-09-17, 03:28:04,VALID,1010.75,VALID,0,VALID,94.872,VALID,0,VALID,22.9926,VALID,329,VALID,0.380859,
2008-09-17, 03:29:04,VALID,1010.77,VALID,0,VALID,94.8644,VALID,0,VALID,22.9926,VALID,329,VALID,0.359375,
2008-09-17, 03:30:04,VALID,1010.78,VALID,0,VALID,94.8796,VALID,0,VALID,22.9909,VALID,329,VALID,0.294922,
2008-09-17, 03:31:04,VALID,1010.81,VALID,0,VALID,94.8873,VALID,0,VALID,23.0121,VALID,329,VALID,0.201953,
2008-09-17, 03:32:04,VALID,1010.83,VALID,0,VALID,94.9178,VALID,0,VALID,23.0121,VALID,329,VALID,0.212891,
2008-09-17, 03:33:04,VALID,1010.83,VALID,0,VALID,94.8949,VALID,0,VALID,23.0121,VALID,329,VALID,0.292188,
2008-09-17, 03:34:04,VALID,1010.82,VALID,0,VALID,94.9178,VALID,0,VALID,23.0333,VALID,329,VALID,0.221094,
2008-09-17, 03:35:04,VALID,1010.82,VALID,0,VALID,94.933,VALID,0,VALID,23.0528,VALID,329,VALID,0.209375,
2008-09-17, 03:36:04,VALID,1010.82,VALID,0,VALID,94.933,VALID,0,VALID,23.0298,VALID,329,VALID,0.213281,
2008-09-17, 03:37:04,VALID,1010.8,VALID,0,VALID,94.9483,VALID,0,VALID,23.0298,VALID,329,VALID,0.255859,
2008-09-17, 03:38:04,VALID,1010.85,VALID,0,VALID,94.9406,VALID,0,VALID,23.0511,VALID,329,VALID,0,
2008-09-17, 03:39:04,VALID,1010.83,VALID,0,VALID,94.9406,VALID,0.105969,VALID,23.0493,VALID,329,VALID,0.157031,
2008-09-17, 03:40:04,VALID,1010.86,VALID,0,VALID,94.9254,VALID,0.105969,VALID,23.0298,VALID,329,VALID,0.302344,
2008-09-17, 03:41:04,VALID,1010.85,VALID,0,VALID,94.9254,VALID,0,VALID,23.0298,VALID,329,VALID,0.314453,
2008-09-17, 03:42:04,VALID,1010.87,VALID,0,VALID,94.9101,VALID,0,VALID,23.0493,VALID,329,VALID,0.155859,
2008-09-17, 03:43:04,VALID,1010.86,VALID,0,VALID,94.9406,VALID,0,VALID,23.0493,VALID,329,VALID,0.104687,
2008-09-17, 03:44:04,VALID,1010.86,VALID,0,VALID,94.9178,VALID,0,VALID,23.09,VALID,329,VALID,0.250391,
2008-09-17, 03:45:04,VALID,1010.84,VALID,0,VALID,94.9254,VALID,0,VALID,23.0688,VALID,329,VALID,0.176953,
2008-09-17, 03:46:04,VALID,1010.85,VALID,0,VALID,94.9178,VALID,0.105969,VALID,23.0883,VALID,329,VALID,0.0261719,
2008-09-17, 03:47:04,VALID,1010.86,VALID,0,VALID,94.933,VALID,0,VALID,23.1095,VALID,329,VALID,0.117969,
2008-09-17, 03:48:04,VALID,1010.86,VALID,0,VALID,94.9406,VALID,0,VALID,23.0883,VALID,329,VALID,0.241016,
2008-09-17, 03:49:04,VALID,1010.87,VALID,0,VALID,94.9178,VALID,0.105969,VALID,23.0883,VALID,329,VALID,0.139453,
2008-09-17, 03:50:04,VALID,1010.88,VALID,0,VALID,94.9254,VALID,0,VALID,23.0883,VALID,329,VALID,0,
2008-09-17, 03:51:04,VALID,1010.89,VALID,0,VALID,94.9025,VALID,0,VALID,23.09,VALID,329,VALID,0.00429688,